This demonstration page uses our WeatherBlox Daily Observations layout. Learn more.

Left ArrowRight Arrow

39.01783, -85.05884

Hourly Observations for May 20, 2015

Temp ( °F °C ) Dew Point ( °F °C ) Humidity (%) Winds ( mph kmh ) Pressure ( in mb ) Visibility ( mi km ) Precip ( " mm )
12:52 am 00:52 Mostly Clear 52 11.1 42 5.6 69 69 NNE 14 22 30.13 1020 10 16 0.00 0.00
1:52 am 01:52 Partly Cloudy 50 10 41 5 71 71 N 12 19 30.14 1021 10 16 0.00 0.00
2:52 am 02:52 Mostly Clear 48 8.9 40 4.4 74 74 N 8 13 30.14 1021 10 16 0.00 0.00
3:52 am 03:52 Clear 47 8.3 40 4.4 77 77 N 7 11 30.13 1020 10 16 0.00 0.00
4:52 am 04:52 Mostly Clear 46 7.8 39 3.9 77 77 N 7 11 30.13 1020 10 16 0.00 0.00
5:52 am 05:52 Partly Cloudy 45 7.2 38 3.3 77 77 N 7 11 30.13 1020 10 16 0.00 0.00
6:52 am 06:52 Mostly Cloudy 44 6.7 38 3.3 79 79 N 6 9 30.14 1021 10 16 0.00 0.00
7:52 am 07:52 Mostly Cloudy 46 7.8 38 3.3 73 73 N 8 13 30.15 1021 10 16 0.00 0.00
8:52 am 08:52 Mostly Cloudy 48 8.9 36 2.2 63 63 NNE 9 15 30.16 1021 10 16 0.00 0.00
9:52 am 09:52 Mostly Cloudy 51 10.6 38 3.3 61 61 ENE 8 13 30.15 1021 10 16 0.00 0.00
10:52 am 10:52 Mostly Cloudy 53 11.7 39 3.9 59 59 E 7 11 30.12 1020 10 16 0.00 0.00
11:52 am 11:52 Mostly Cloudy 55 12.8 40 4.4 57 57 Calm 30.13 1020 10 16 0.00 0.00
12:52 pm 12:52 Mostly Cloudy 58 14.4 41 5 53 53 ENE 6 9 30.11 1020 10 16 0.00 0.00
1:52 pm 13:52 Cloudy 61 16.1 41 5 48 48 ENE 7 11 30.09 1019 10 16 0.00 0.00
2:52 pm 14:52 Cloudy 62 16.7 42 5.6 48 48 NE 9 15 30.08 1019 10 16 0.00 0.00
3:52 pm 15:52 Cloudy 61 16.1 43 6.1 52 52 ENE 9 15 30.07 1018 10 16 0.00 0.00
4:52 pm 16:52 Cloudy 60 15.6 42 5.6 52 52 N 10 17 30.05 1018 10 16 0.00 0.00
5:52 pm 17:52 Cloudy 60 15.6 41 5 50 50 NNE 10 17 30.04 1017 10 16 0.00 0.00
6:52 pm 18:52 Cloudy with Light Rain 59 15 41 5 51 51 ENE 7 11 30.01 1016 10 16 0.00 0.03
7:52 pm 19:52 Cloudy 58 14.4 43 6.1 58 58 NE 8 13 29.99 1016 10 16 0.00 0.03
8:52 pm 20:52 Cloudy with Light Rain 57 13.9 44 6.7 62 62 NE 8 13 29.98 1015 10 16 0.00 0.03
9:52 pm 21:52 Cloudy with Light Rain 55 12.8 47 8.3 74 74 N 10 17 29.98 1015 10 16 0.00 0.03
10:52 pm 22:52 Cloudy with Light Rain 54 12.2 46 7.8 75 75 N 9 15 30.00 1016 10 16 0.00 0.03
11:52 pm 23:52 Cloudy 54 12.2 46 7.8 75 75 N 7 11 29.99 1016 10 16 0.00 0.03

Powered by AerisWeather